Regional Weather Roundup
Issued by NWS

Home | Current Version | Previous Version | Graphics & Text | Print | Product List | Glossary On
Versions: 1 2 3 4 5 6 7 8 9 10 11 12 13 14 15 16 17 18 19 20 21 22 23 24 25 26 27 28 29 30 31 32 33 34 35 36 37 38 39 40 41 42 43 44 45 46 47 48 49 50
000
ASUS43 KDMX 132007
RWRIA

WEATHER ROUNDUP FOR IOWA
NATIONAL WEATHER SERVICE DES MOINES IA
300 PM CDT SUN JUL 13 2014

NOTE: "FAIR" INDICATES FEW OR NO CLOUDS BELOW 12,000 FEET WITH NO
SIGNIFICANT WEATHER AND/OR OBSTRUCTIONS TO VISIBILITY.

* - THESE STATIONS ARE NOT NWS STATIONS...THUS NOT UNDER NWS
QUALITY CONTROL.  THEY ALSO DO NOT REPORT WEATHER SUCH
AS PRECIPITATION OR FOG.

IAZ001>003-012>014-020>022-031>034-043>046-132100-
   NORTHWEST IOWA

CITY           SKY/WX    TMP DP  RH WIND       PRES   REMARKS
CARROLL *      MOSUNNY   81  68  65 NW13G18   30.00S HX  83
CHEROKEE *     MOSUNNY   81  61  50 W8        30.01S HX  81
DENISON *      MOSUNNY   82  70  65 NW12      29.99F HX  86
LE MARS *      SUNNY     82  63  51 W8        30.02F HX  83
ORANGE CITY *  SUNNY     82  61  47 NW9G18    30.01F HX  83
SHELDON *      SUNNY     77  61  57 NW9G18    30.00F
SIOUX CITY     PTSUNNY   84  62  47 MISG      30.01F HX  85
SPENCER        PTSUNNY   79  61  53 NW13G18   30.00F HX  80
STORM LAKE *   SUNNY     79  63  57 NW13      30.02F HX  80
$$

IAZ055>058-069>071-079>083-090>094-132100-
   SOUTHWEST IOWA

CITY           SKY/WX    TMP DP  RH WIND       PRES   REMARKS
ATLANTIC *     MOSUNNY   84  68  58 NW5G13    30.00F HX  87
AUDUBON *      SUNNY     88  73  62 NW7       30.01F HX  96
CLARINDA *     MOSUNNY   86  70  58 NW6G14    30.02F HX  90
COUNCIL BLFS * MOSUNNY   86  68  54 W9        30.00F HX  89
CRESTON *      MOSUNNY   84  66  54 NW9G15    30.01F HX  86
HARLAN  *      MOSUNNY   84  68  58 VRB5      30.04S HX  87
LAMONI         MOSUNNY   84  67  56 VRB7      30.00F HX  86
RED OAK *      SUNNY     86  66  51 NW8       30.00F HX  88
SHENANDOAH *   MOSUNNY   86  68  54 NW5       30.01F HX  89
$$

IAZ047>049-059>061-072>074-084-132100-
   CENTRAL IOWA

CITY           SKY/WX    TMP DP  RH WIND       PRES   REMARKS
AMES           LGT RAIN  72  67  84 W9        29.98R
ANKENY *       MOSUNNY   84  68  58 W10       29.96F HX  87
CHARITON *     SUNNY     84  68  58 NW9       29.99S HX  87
DES MOINES     MOSUNNY   87  65  47 W8        29.96F HX  89
GRINNELL*      MOSUNNY   82  66  57 W10       29.97F HX  85
KNOXVILLE *    SUNNY     84  64  51 NW9       29.96F HX  86
MARSHALLTOWN   MOSUNNY   83  66  56 NW10G20   29.96F HX  85
PELLA *        MOSUNNY   84  68  58 W7        29.98F HX  87
PERRY *        CLOUDY    77  66  69 N10G16    29.99S
$$

IAZ004>006-015-016-023>025-035-036-132100-
   NORTH CENTRAL IOWA

CITY           SKY/WX    TMP DP  RH WIND       PRES   REMARKS
ALGONA *       MOSUNNY   81  61  50 NW14      29.99F HX  81
CLARION *      SUNNY     82  63  51 NW12G18   29.98F HX  83
ESTHERVILLE    PTSUNNY   79  56  45 NW13      29.99F HX  80
FORT DODGE *   MOSUNNY   81  61  50 NW7       30.00S HX  81
MASON CITY     SUNNY     80  57  45 NW12G22   29.99F HX  80
FOREST CITY *  MOSUNNY   79  57  47 NW15      29.98F HX  80
IOWA FALLS *     N/A     82  59  44 NW15G21   29.99S HX  82
$$

IAZ007>011-017>019-026>030-037>042-050>054-066-132100-
   NORTHEAST IOWA

CITY           SKY/WX    TMP DP  RH WIND       PRES   REMARKS
CEDAR RAPIDS   MOSUNNY   83  66  56 W12       29.93F HX  85
CHARLES CITY * SUNNY     79  59  50 NW14G21   29.97F HX  80
CLINTON *      SUNNY     82  70  65 W10       29.96F HX  86
DECORAH *        N/A    N/A N/A N/A MISG        N/A
DUBUQUE        MOSUNNY   81  62  52 NW17G25   29.94F HX  82
MONTICELLO *   MOSUNNY   82  66  57 W14       29.93F HX  85
OELWEIN *      SUNNY     81  63  54 NW16G25   29.96S HX  82
WATERLOO       SUNNY     83  59  44 W16       29.94F HX  83
$$

IAZ064-065-067-068-078-132100-
   EAST CENTRAL IOWA

CITY           SKY/WX    TMP DP  RH WIND       PRES   REMARKS
DAVENPORT        N/A     81  67  62 W10       29.95F HX  83
IOWA CITY      MOSUNNY   83  68  60 W10       29.96F HX  86
MT. PLEASANT * MOSUNNY   84  66  54 NW8       29.97S HX  86
MUSCATINE *    MOSUNNY   84  66  54 NW8       29.96S HX  86
QUAD CITIES    MOSUNNY   84  66  54 W10       29.94F HX  86
$$

IAZ062-063-075>077-085>089-095>099-132100-
   SOUTHEAST IOWA

CITY           SKY/WX    TMP DP  RH WIND       PRES   REMARKS
BURLINGTON     SUNNY     84  67  56 NW5       29.96S HX  86
FAIRFIELD *    MOSUNNY   82  68  61 NW8       29.97F HX  85
FORT MADISON * SUNNY     84  72  65 CALM      29.98S HX  89
KEOKUK *       SUNNY     82  68  61 CALM      29.96S HX  85
OSKALOOSA *      N/A     82  70  65 NW6       29.98F HX  86
CENTERVILLE *  MOSUNNY   84  68  58 W7        30.01S HX  87
OTTUMWA        MOSUNNY   84  66  54 NW6       29.97F HX  86
WASHINGTON *   MOSUNNY   82  66  57 NW6G12    29.97S HX  85
$$

ABBREVIATIONS USED IN REMARKS
   TC - TEMPERATURES IN CELSIUS
  WCI - WIND CHILL INDEX
   HX - HEAT INDEX
  VSB - VISIBILITY
$$




USA.gov is the U.S. government's official web portal to all federal, state and local government web resources and services.